AAY318 KMYR-KSYR

Flight info

Callsign AAY318
Flight time N/A
Altitude 35000
Route RDU FAK AML Q227 STENT CFB/N0339F170 T335 CORTA
Aircraft A319/M-SDE3FGHIRWY/LB1

Departure

Time 2026-05-07 19:23
Airport Myrtle Beach International Airport (KMYR)

Arrival

Time N/A
Airport Syracuse Hancock International Airport (KSYR)
Time Latitude Longitude Altitude Speed Heading
2026-05-07 18:55 33.67990 -78.92338 31 ft 0 kts 348°
2026-05-07 18:55 33.67989 -78.92337 32 ft 0 kts 348°
2026-05-07 19:15 33.67986 -78.92336 30 ft 3 kts 348°
2026-05-07 19:15 33.67960 -78.92330 30 ft 4 kts 348°
2026-05-07 19:15 33.67938 -78.92324 31 ft 4 kts
2026-05-07 19:15 33.67920 -78.92339 32 ft 4 kts 54°
2026-05-07 19:16 33.67912 -78.92352 30 ft 1 kts 54°
2026-05-07 19:16 33.67900 -78.92376 31 ft 4 kts 72°
2026-05-07 19:16 33.67895 -78.92408 32 ft 4 kts 91°
2026-05-07 19:16 33.67896 -78.92440 32 ft 4 kts 83°
2026-05-07 19:17 33.67891 -78.92471 31 ft 4 kts 78°
2026-05-07 19:17 33.67886 -78.92503 31 ft 4 kts 78°
2026-05-07 19:17 33.67880 -78.92535 29 ft 4 kts 75°
2026-05-07 19:17 33.67871 -78.92565 30 ft 4 kts 64°
2026-05-07 19:18 33.67858 -78.92590 31 ft 4 kts 30°
2026-05-07 19:18 33.67844 -78.92596 32 ft 0 kts 349°
2026-05-07 19:19 33.67845 -78.92596 32 ft 0 kts 351°
2026-05-07 19:19 33.67876 -78.92584 32 ft 7 kts
2026-05-07 19:19 33.67875 -78.92594 32 ft 1 kts 202°
2026-05-07 19:20 33.67818 -78.92589 31 ft 15 kts 169°
2026-05-07 19:20 33.67681 -78.92557 32 ft 22 kts 169°
2026-05-07 19:20 33.67531 -78.92522 32 ft 22 kts 168°
2026-05-07 19:20 33.67381 -78.92484 32 ft 22 kts 168°
2026-05-07 19:21 33.67231 -78.92445 32 ft 22 kts 167°
2026-05-07 19:21 33.67085 -78.92389 32 ft 22 kts 148°
2026-05-07 19:21 33.66942 -78.92328 32 ft 22 kts 168°
2026-05-07 19:21 33.66793 -78.92298 32 ft 17 kts 172°
2026-05-07 19:22 33.66730 -78.92384 33 ft 15 kts 260°
2026-05-07 19:22 33.66718 -78.92506 34 ft 14 kts 287°
2026-05-07 19:22 33.66814 -78.92542 34 ft 23 kts 348°
2026-05-07 19:22 33.67230 -78.92648 32 ft 97 kts 348°
2026-05-07 19:23 33.68096 -78.92865 32 ft 155 kts 348°
2026-05-07 19:23 33.69207 -78.93112 509 ft 161 kts 346°
2026-05-07 19:23 33.70337 -78.93340 1016 ft 167 kts 338°
2026-05-07 19:23 33.71490 -78.93617 1609 ft 171 kts 336°
2026-05-07 19:24 33.72777 -78.93698 1891 ft 205 kts 353°
2026-05-07 19:24 33.74288 -78.93609 2156 ft 232 kts 354°
2026-05-07 19:24 33.75994 -78.93505 2512 ft 258 kts 355°
2026-05-07 19:24 33.77847 -78.93369 3189 ft 270 kts 355°
2026-05-07 19:25 33.79734 -78.93202 4152 ft 275 kts 355°
2026-05-07 19:25 33.81651 -78.93042 5090 ft 277 kts 354°
2026-05-07 19:25 33.83581 -78.92898 6047 ft 279 kts 354°
2026-05-07 19:25 33.85540 -78.92762 6909 ft 284 kts 353°
2026-05-07 19:26 33.87525 -78.92628 7747 ft 288 kts 353°
2026-05-07 19:26 33.89552 -78.92494 8567 ft 293 kts 353°
2026-05-07 19:26 33.91607 -78.92357 9382 ft 298 kts 353°
2026-05-07 19:26 33.93699 -78.92215 10146 ft 305 kts 353°
2026-05-07 19:27 33.95893 -78.92075 10467 ft 327 kts 353°
2026-05-07 19:27 33.98222 -78.91923 10975 ft 339 kts 354°
2026-05-07 19:27 34.00593 -78.91754 11703 ft 343 kts 354°
2026-05-07 19:27 34.02987 -78.91579 12459 ft 347 kts 354°
2026-05-07 19:28 34.05409 -78.91402 13189 ft 350 kts 354°
2026-05-07 19:28 34.07853 -78.91225 13890 ft 353 kts 354°
2026-05-07 19:28 34.10314 -78.91049 14525 ft 356 kts 354°
2026-05-07 19:28 34.12800 -78.90874 15160 ft 359 kts 353°
2026-05-07 19:29 34.15303 -78.90698 15795 ft 362 kts 353°
2026-05-07 19:29 34.17821 -78.90521 16431 ft 364 kts 353°
2026-05-07 19:29 34.20365 -78.90340 17055 ft 367 kts 353°
2026-05-07 19:29 34.22925 -78.90160 17685 ft 370 kts 353°
2026-05-07 19:30 34.25511 -78.89978 18273 ft 374 kts 353°
2026-05-07 19:30 34.28126 -78.89795 18785 ft 378 kts 353°
2026-05-07 19:30 34.30765 -78.89609 19312 ft 381 kts 353°
2026-05-07 19:30 34.33424 -78.89422 19830 ft 385 kts 353°
2026-05-07 19:31 34.36110 -78.89234 20350 ft 388 kts 353°
2026-05-07 19:31 34.38782 -78.89044 20867 ft 391 kts 353°
2026-05-07 19:31 34.41544 -78.88846 21393 ft 394 kts 353°
2026-05-07 19:31 34.44257 -78.88651 21882 ft 398 kts 353°
2026-05-07 19:32 34.47028 -78.88455 22384 ft 401 kts 353°
2026-05-07 19:32 34.49825 -78.88261 22883 ft 405 kts 352°
2026-05-07 19:32 34.52655 -78.88065 23325 ft 410 kts 352°
2026-05-07 19:32 34.55515 -78.87862 23729 ft 413 kts 352°
2026-05-07 19:33 34.58399 -78.87654 24143 ft 416 kts 352°
2026-05-07 19:33 34.61300 -78.87443 24551 ft 419 kts 352°
2026-05-07 19:33 34.64219 -78.87232 24957 ft 421 kts 352°
2026-05-07 19:33 34.67151 -78.87022 25361 ft 423 kts 352°
2026-05-07 19:34 34.70096 -78.86810 25751 ft 426 kts 352°
2026-05-07 19:34 34.73063 -78.86597 26140 ft 428 kts 351°
2026-05-07 19:34 34.76042 -78.86386 26523 ft 431 kts 351°
2026-05-07 19:34 34.79056 -78.86177 26868 ft 435 kts 350°
2026-05-07 19:35 34.82087 -78.85968 27234 ft 437 kts 350°
2026-05-07 19:35 34.85129 -78.85754 27613 ft 440 kts 350°
2026-05-07 19:35 34.88194 -78.85535 27998 ft 442 kts 350°
2026-05-07 19:35 34.91275 -78.85311 28381 ft 444 kts 350°
2026-05-07 19:36 34.94364 -78.85087 28753 ft 446 kts 350°
2026-05-07 19:36 34.97470 -78.84863 29119 ft 448 kts 350°
2026-05-07 19:36 35.00566 -78.84635 29503 ft 451 kts 349°
2026-05-07 19:36 35.03700 -78.84406 29857 ft 453 kts 349°
2026-05-07 19:37 35.06857 -78.84179 30147 ft 455 kts 349°
2026-05-07 19:37 35.10024 -78.83954 30404 ft 457 kts 349°
2026-05-07 19:37 35.13212 -78.83727 30674 ft 460 kts 349°
2026-05-07 19:37 35.16420 -78.83497 30953 ft 462 kts 349°
2026-05-07 19:38 35.19642 -78.83267 31213 ft 465 kts 349°
2026-05-07 19:38 35.22883 -78.83034 31462 ft 467 kts 349°
2026-05-07 19:38 35.26143 -78.82795 31749 ft 470 kts 349°
2026-05-07 19:38 35.29405 -78.82552 32094 ft 470 kts 349°
2026-05-07 19:39 35.32669 -78.82309 32443 ft 470 kts 349°
2026-05-07 19:39 35.35940 -78.82068 32784 ft 470 kts 349°
2026-05-07 19:39 35.39211 -78.81830 33115 ft 470 kts 349°
2026-05-07 19:39 35.42479 -78.81594 33461 ft 471 kts 348°
2026-05-07 19:40 35.45754 -78.81362 33807 ft 471 kts 348°
2026-05-07 19:40 35.49027 -78.81130 34105 ft 472 kts 348°
2026-05-07 19:40 35.52304 -78.80892 34410 ft 471 kts 348°
2026-05-07 19:40 35.55575 -78.80649 34731 ft 470 kts 348°
2026-05-07 19:41 35.58837 -78.80407 34860 ft 470 kts 348°
2026-05-07 19:41 35.62118 -78.80171 34889 ft 473 kts 348°
2026-05-07 19:41 35.68650 -78.79703 34885 ft 474 kts 348°
2026-05-07 19:42 35.75239 -78.79224 34892 ft 475 kts 348°
2026-05-07 19:42 35.81850 -78.78735 34879 ft 475 kts 348°
2026-05-07 19:43 35.88524 -78.77495 34904 ft 508 kts
2026-05-07 19:43 35.91844 -78.75785 34898 ft 521 kts 12°
2026-05-07 19:43 35.95096 -78.73937 34879 ft 521 kts 12°
2026-05-07 19:44 36.01677 -78.70190 34939 ft 521 kts 12°
2026-05-07 19:44 36.08259 -78.66455 34913 ft 520 kts 12°
2026-05-07 19:45 36.14842 -78.62739 34914 ft 520 kts 12°
2026-05-07 19:45 36.21430 -78.59006 34976 ft 520 kts 12°
2026-05-07 19:46 36.27993 -78.55260 34934 ft 519 kts 12°
2026-05-07 19:46 36.34548 -78.51516 34927 ft 519 kts 12°
2026-05-07 19:47 36.41058 -78.47786 34924 ft 519 kts 12°
2026-05-07 19:47 36.47622 -78.44035 34960 ft 519 kts 11°
2026-05-07 19:48 36.54177 -78.40286 34948 ft 519 kts 11°
2026-05-07 19:48 36.60738 -78.36524 34945 ft 519 kts 11°
2026-05-07 19:49 36.67299 -78.32742 35004 ft 520 kts 11°
2026-05-07 19:49 36.73877 -78.28963 34910 ft 520 kts 11°
2026-05-07 19:50 36.80450 -78.25165 34936 ft 521 kts 11°
2026-05-07 19:50 36.87031 -78.21349 34939 ft 522 kts 11°
2026-05-07 19:51 36.93628 -78.17527 34947 ft 523 kts 11°
2026-05-07 19:51 37.00235 -78.13680 34923 ft 524 kts 11°
2026-05-07 19:52 37.06808 -78.09840 34915 ft 525 kts 11°
2026-05-07 19:52 37.13434 -78.05980 34945 ft 526 kts 11°
2026-05-07 19:53 37.20078 -78.02107 34920 ft 527 kts 11°
2026-05-07 19:53 37.26733 -77.98201 34927 ft 527 kts 11°
2026-05-07 19:54 37.33383 -77.94295 34930 ft 528 kts 11°
2026-05-07 19:54 37.40052 -77.90381 34975 ft 530 kts 11°
2026-05-07 19:55 37.46737 -77.86445 34970 ft 530 kts 11°
2026-05-07 19:55 37.53453 -77.82812 34960 ft 510 kts
2026-05-07 19:56 37.56842 -77.81798 35034 ft 496 kts 355°
2026-05-07 19:56 37.60227 -77.80949 34948 ft 496 kts 355°
2026-05-07 19:56 37.66940 -77.79261 34931 ft 495 kts 355°
2026-05-07 19:57 37.73700 -77.77554 34937 ft 496 kts 355°
2026-05-07 19:57 37.80466 -77.75838 34932 ft 496 kts 355°
2026-05-07 19:58 37.87245 -77.74114 34929 ft 497 kts 355°
2026-05-07 19:58 37.94024 -77.72390 34930 ft 497 kts 355°
2026-05-07 19:59 38.00803 -77.70655 34948 ft 497 kts 355°
2026-05-07 19:59 38.07596 -77.68919 34953 ft 498 kts 355°
2026-05-07 20:00 38.14381 -77.67188 34903 ft 496 kts 355°
2026-05-07 20:00 38.20051 -77.65723 34907 ft 497 kts 355°
2026-05-07 20:01 38.26796 -77.63988 34933 ft 499 kts 355°
2026-05-07 20:01 38.33605 -77.62242 34919 ft 499 kts 355°
2026-05-07 20:02 38.40424 -77.60485 34916 ft 500 kts 355°
2026-05-07 20:02 38.47253 -77.58719 34939 ft 501 kts 355°
2026-05-07 20:03 38.54100 -77.56944 34910 ft 503 kts 356°
2026-05-07 20:03 38.60966 -77.55159 34903 ft 503 kts 356°
2026-05-07 20:04 38.67839 -77.53378 34907 ft 503 kts 356°
2026-05-07 20:04 38.74704 -77.51589 34904 ft 503 kts 356°
2026-05-07 20:05 38.81518 -77.49799 34897 ft 503 kts 356°
2026-05-07 20:05 38.88383 -77.48001 34859 ft 503 kts 356°
2026-05-07 20:06 38.95202 -77.46633 34903 ft 480 kts 345°
2026-05-07 20:06 39.01848 -77.46514 34883 ft 477 kts 344°
2026-05-07 20:07 39.08487 -77.46428 34894 ft 477 kts 345°
2026-05-07 20:07 39.15120 -77.46334 34919 ft 485 kts 345°
2026-05-07 20:08 39.21935 -77.46272 34886 ft 493 kts 346°
2026-05-07 20:08 39.28823 -77.46145 34903 ft 496 kts 346°
2026-05-07 20:09 39.35725 -77.45982 34957 ft 495 kts 347°
2026-05-07 20:10 39.46047 -77.45819 34902 ft 495 kts 347°
2026-05-07 20:10 39.52935 -77.45710 34901 ft 495 kts 347°
2026-05-07 20:11 39.59822 -77.45589 34920 ft 495 kts 347°
2026-05-07 20:11 39.66689 -77.45460 34882 ft 492 kts 348°
2026-05-07 20:12 39.73534 -77.45348 34878 ft 492 kts 347°
2026-05-07 20:12 39.80386 -77.45244 34930 ft 493 kts 348°
2026-05-07 20:13 39.87241 -77.45133 34915 ft 492 kts 348°
2026-05-07 20:13 39.94084 -77.45008 34899 ft 491 kts 348°
2026-05-07 20:14 40.00878 -77.44887 34890 ft 491 kts 348°
2026-05-07 20:14 40.07717 -77.44773 34882 ft 491 kts 348°
2026-05-07 20:15 40.14549 -77.44666 34893 ft 491 kts 348°
2026-05-07 20:15 40.21377 -77.44559 34888 ft 490 kts 348°
2026-05-07 20:16 40.28206 -77.44433 34898 ft 490 kts 348°
2026-05-07 20:16 40.35021 -77.44306 34890 ft 490 kts 348°
2026-05-07 20:17 40.41844 -77.44198 34882 ft 489 kts 348°
2026-05-07 20:17 40.48621 -77.44094 34911 ft 490 kts 348°
2026-05-07 20:18 40.55432 -77.43979 34894 ft 489 kts 348°
2026-05-07 20:18 40.62243 -77.43851 34887 ft 489 kts 349°
2026-05-07 20:19 40.69052 -77.43725 34882 ft 489 kts 349°
2026-05-07 20:19 40.75894 -77.43015 34867 ft 507 kts
2026-05-07 20:20 40.82790 -77.40986 34869 ft 508 kts
2026-05-07 20:20 40.89688 -77.38913 34902 ft 509 kts
2026-05-07 20:21 40.96595 -77.36834 34887 ft 509 kts
2026-05-07 20:21 41.03506 -77.34766 34878 ft 509 kts
2026-05-07 20:22 41.10421 -77.32694 34881 ft 509 kts
2026-05-07 20:22 41.17281 -77.30626 34865 ft 508 kts
2026-05-07 20:23 41.24185 -77.28546 34866 ft 509 kts
2026-05-07 20:23 41.31083 -77.26463 34907 ft 509 kts
2026-05-07 20:24 41.37994 -77.24377 34894 ft 509 kts
2026-05-07 20:24 41.44908 -77.22290 34661 ft 511 kts
2026-05-07 20:24 41.48369 -77.21246 34461 ft 510 kts
2026-05-07 20:25 41.51834 -77.20191 34208 ft 511 kts
2026-05-07 20:25 41.55298 -77.19135 33548 ft 511 kts
2026-05-07 20:25 41.58759 -77.18079 32967 ft 510 kts
2026-05-07 20:25 41.62215 -77.16993 32364 ft 514 kts
2026-05-07 20:26 41.65595 -77.15189 31750 ft 532 kts 20°
2026-05-07 20:26 41.68657 -77.12305 31216 ft 548 kts 37°
2026-05-07 20:26 41.71148 -77.08459 30938 ft 560 kts 52°
2026-05-07 20:26 41.73314 -77.04014 30389 ft 564 kts 54°
2026-05-07 20:27 41.75431 -76.99596 29715 ft 564 kts 54°
2026-05-07 20:27 41.77513 -76.95209 29102 ft 565 kts 54°
2026-05-07 20:27 41.79615 -76.90760 28470 ft 566 kts 54°
2026-05-07 20:27 41.81724 -76.86292 27852 ft 567 kts 54°
2026-05-07 20:28 41.83828 -76.81837 27256 ft 566 kts 54°
2026-05-07 20:28 41.85937 -76.77375 26643 ft 567 kts 54°
2026-05-07 20:28 41.88052 -76.72902 25963 ft 568 kts 54°
2026-05-07 20:28 41.90171 -76.68427 25310 ft 567 kts 54°
2026-05-07 20:29 41.92280 -76.63968 24639 ft 565 kts 55°
2026-05-07 20:29 41.94371 -76.59529 23921 ft 560 kts 55°
2026-05-07 20:29 41.96438 -76.55123 23177 ft 555 kts 55°
2026-05-07 20:29 41.98476 -76.50764 22478 ft 547 kts 55°
2026-05-07 20:30 42.00482 -76.46463 21822 ft 539 kts 55°
2026-05-07 20:30 42.02457 -76.42231 21168 ft 531 kts 56°
2026-05-07 20:30 42.04406 -76.38056 20527 ft 523 kts 56°
2026-05-07 20:30 42.06325 -76.33941 19897 ft 515 kts 56°
2026-05-07 20:31 42.08214 -76.29881 19283 ft 508 kts 56°
2026-05-07 20:31 42.10073 -76.25882 18676 ft 500 kts 56°
2026-05-07 20:31 42.11908 -76.21939 18060 ft 493 kts 56°
2026-05-07 20:31 42.13846 -76.18184 17541 ft 484 kts 46°
2026-05-07 20:32 42.16328 -76.15224 17173 ft 471 kts 30°
2026-05-07 20:32 42.19059 -76.12814 16798 ft 467 kts 28°
2026-05-07 20:32 42.21776 -76.10443 16403 ft 463 kts 28°
2026-05-07 20:32 42.24473 -76.08093 16012 ft 459 kts 28°
2026-05-07 20:33 42.27147 -76.05762 15628 ft 456 kts 28°
2026-05-07 20:33 42.29803 -76.03448 15246 ft 452 kts 28°
2026-05-07 20:33 42.32433 -76.01148 14873 ft 448 kts 28°
2026-05-07 20:33 42.35038 -75.98871 14501 ft 445 kts 28°
2026-05-07 20:34 42.37632 -75.96604 14149 ft 441 kts 28°
2026-05-07 20:34 42.40196 -75.94364 13788 ft 437 kts 28°
2026-05-07 20:34 42.42737 -75.92140 13374 ft 433 kts 28°
2026-05-07 20:34 42.45253 -75.89941 12888 ft 427 kts 28°
2026-05-07 20:35 42.47718 -75.87786 12407 ft 417 kts 28°
2026-05-07 20:35 42.50104 -75.85709 11940 ft 408 kts 28°
2026-05-07 20:35 42.52463 -75.83654 11475 ft 398 kts 28°
2026-05-07 20:35 42.54740 -75.81670 11032 ft 379 kts 28°
2026-05-07 20:36 42.56905 -75.79771 10593 ft 366 kts 28°
2026-05-07 20:36 42.59023 -75.77910 10141 ft 359 kts 28°
2026-05-07 20:36 42.61107 -75.76081 9692 ft 353 kts 28°
2026-05-07 20:36 42.63161 -75.74284 9197 ft 347 kts 28°
2026-05-07 20:37 42.65183 -75.72526 8714 ft 342 kts 28°
2026-05-07 20:37 42.67179 -75.70806 8235 ft 337 kts 28°
2026-05-07 20:37 42.69151 -75.69132 7752 ft 332 kts 26°
2026-05-07 20:37 42.71215 -75.67830 7306 ft 324 kts 18°
2026-05-07 20:38 42.73286 -75.66681 6856 ft 319 kts 18°
2026-05-07 20:38 42.75332 -75.65571 6401 ft 314 kts 18°
2026-05-07 20:38 42.77352 -75.64490 5930 ft 310 kts 18°
2026-05-07 20:38 42.79350 -75.63435 5457 ft 306 kts 18°
2026-05-07 20:39 42.81319 -75.62405 4992 ft 301 kts 17°
2026-05-07 20:39 42.83263 -75.61397 4509 ft 296 kts 18°
2026-05-07 20:39 42.85224 -75.60701 4037 ft 289 kts
2026-05-07 20:39 42.87185 -75.60971 3571 ft 281 kts 341°
2026-05-07 20:40 42.88902 -75.62162 3114 ft 277 kts 323°
2026-05-07 20:40 42.90434 -75.63727 2745 ft 271 kts 321°
2026-05-07 20:40 42.91892 -75.65223 2696 ft 251 kts 321°
2026-05-07 20:40 42.93259 -75.66622 2701 ft 242 kts 321°
2026-05-07 20:41 42.94604 -75.68001 2704 ft 242 kts 321°
2026-05-07 20:41 42.95946 -75.69383 2699 ft 240 kts 320°
2026-05-07 20:41 42.97273 -75.70748 2698 ft 232 kts 321°
2026-05-07 20:41 42.98502 -75.72002 2702 ft 215 kts 320°
2026-05-07 20:42 42.99680 -75.73206 2705 ft 209 kts 321°
2026-05-07 20:42 43.00841 -75.74397 2708 ft 206 kts 320°
2026-05-07 20:42 43.01977 -75.75573 2707 ft 203 kts 320°
2026-05-07 20:42 43.03102 -75.76740 2699 ft 203 kts 319°
2026-05-07 20:43 43.04233 -75.77913 2721 ft 204 kts 320°
2026-05-07 20:43 43.05328 -75.79041 2733 ft 191 kts 321°
2026-05-07 20:43 43.06375 -75.80118 2712 ft 185 kts 320°
2026-05-07 20:43 43.07396 -75.81174 2698 ft 182 kts 320°
2026-05-07 20:44 43.08397 -75.82207 2704 ft 181 kts 320°
2026-05-07 20:44 43.09067 -75.82897 2712 ft 182 kts 320°
2026-05-07 20:44 43.10081 -75.83943 2709 ft 184 kts 321°
2026-05-07 20:44 43.10996 -75.85158 2714 ft 184 kts 304°
2026-05-07 20:45 43.11511 -75.86719 2708 ft 180 kts 284°
2026-05-07 20:45 43.11587 -75.88424 2713 ft 180 kts 269°
2026-05-07 20:45 43.11533 -75.90138 2714 ft 179 kts 270°
2026-05-07 20:45 43.11481 -75.91861 2709 ft 183 kts 269°
2026-05-07 20:46 43.11427 -75.93596 2665 ft 181 kts 269°
2026-05-07 20:46 43.11374 -75.95337 2489 ft 185 kts 269°
2026-05-07 20:46 43.11319 -75.97047 2252 ft 172 kts 269°
2026-05-07 20:46 43.11269 -75.98635 2034 ft 167 kts 268°
2026-05-07 20:47 43.11220 -76.00192 1810 ft 160 kts 271°
2026-05-07 20:47 43.11172 -76.01689 1581 ft 156 kts 269°
2026-05-07 20:47 43.11125 -76.03139 1358 ft 142 kts 269°
2026-05-07 20:47 43.11080 -76.04409 1153 ft 128 kts 269°
2026-05-07 20:48 43.11042 -76.05603 955 ft 131 kts 269°
2026-05-07 20:48 43.11011 -76.06819 847 ft 125 kts 272°
2026-05-07 20:48 43.10975 -76.07990 663 ft 122 kts 269°
2026-05-07 20:48 43.10932 -76.09126 486 ft 120 kts 271°
2026-05-07 20:49 43.10906 -76.10196 424 ft 95 kts 266°